TCA7378 SVBI-SVMD

Flight info

Callsign TCA7378
Flight time 0h 35m
Altitude 24000
Route BNS W7 VRA W8 EVG
Aircraft C25B/M-SDE2E3FGHRWXY/LB1

Departure

Time 2026-05-06 20:22
Airport Barinas Airport (SVBI)

Arrival

Time 2026-05-06 20:57
Airport Alberto Carnevalli Airport (SVMD)
Time Latitude Longitude Altitude Speed Heading
2026-05-06 20:13 8.62240 -70.22023 628 ft 0 kts 213°
2026-05-06 20:18 8.62239 -70.22023 628 ft 1 kts 213°
2026-05-06 20:19 8.62204 -70.22025 628 ft 9 kts 173°
2026-05-06 20:19 8.62143 -70.22025 630 ft 8 kts 197°
2026-05-06 20:19 8.62078 -70.22040 633 ft 12 kts 203°
2026-05-06 20:19 8.61997 -70.22089 633 ft 15 kts 211°
2026-05-06 20:20 8.61956 -70.22094 633 ft 0 kts 120°
2026-05-06 20:21 8.61893 -70.21996 625 ft 66 kts 123°
2026-05-06 20:22 8.61418 -70.21284 841 ft 161 kts 124°
2026-05-06 20:22 8.60720 -70.20257 1884 ft 194 kts 123°
2026-05-06 20:22 8.60347 -70.18859 3093 ft 223 kts 92°
2026-05-06 20:22 8.60583 -70.17255 3974 ft 242 kts 65°
2026-05-06 20:23 8.61591 -70.15914 5279 ft 241 kts 45°
2026-05-06 20:23 8.62890 -70.14857 6516 ft 244 kts 38°
2026-05-06 20:23 8.64257 -70.13833 7738 ft 246 kts 39°
2026-05-06 20:23 8.65169 -70.13101 8515 ft 249 kts 40°
2026-05-06 20:24 8.66994 -70.11644 9973 ft 255 kts 40°
2026-05-06 20:24 8.68403 -70.10521 11029 ft 260 kts 40°
2026-05-06 20:24 8.69842 -70.09381 12064 ft 265 kts 41°
2026-05-06 20:24 8.71301 -70.08215 13076 ft 269 kts 41°
2026-05-06 20:25 8.72282 -70.07438 13761 ft 271 kts 41°
2026-05-06 20:25 8.74310 -70.05946 15071 ft 277 kts 30°
2026-05-06 20:25 8.76124 -70.05260 16070 ft 280 kts 18°
2026-05-06 20:25 8.78073 -70.05022 17033 ft 286 kts
2026-05-06 20:26 8.80057 -70.05271 17993 ft 291 kts 348°
2026-05-06 20:26 8.81947 -70.06049 18931 ft 297 kts 334°
2026-05-06 20:26 8.83628 -70.07301 19776 ft 304 kts 322°
2026-05-06 20:26 8.85282 -70.08651 20600 ft 307 kts 323°
2026-05-06 20:27 8.86948 -70.10022 21410 ft 311 kts 322°
2026-05-06 20:27 8.88057 -70.10941 21922 ft 313 kts 322°
2026-05-06 20:27 8.90308 -70.12798 22927 ft 318 kts 321°
2026-05-06 20:27 8.92032 -70.14215 23667 ft 321 kts 321°
2026-05-06 20:28 8.93805 -70.15674 23929 ft 340 kts 321°
2026-05-06 20:28 8.95699 -70.17239 23933 ft 362 kts 321°
2026-05-06 20:28 8.97020 -70.18324 23937 ft 375 kts 321°
2026-05-06 20:28 8.99067 -70.20013 23935 ft 378 kts 321°
2026-05-06 20:29 9.01083 -70.21667 23938 ft 369 kts 321°
2026-05-06 20:29 9.03686 -70.23820 23934 ft 361 kts 321°
2026-05-06 20:29 9.04994 -70.24898 23934 ft 358 kts 321°
2026-05-06 20:29 9.07534 -70.26997 23935 ft 353 kts 321°
2026-05-06 20:30 9.09435 -70.28559 23935 ft 351 kts 321°
2026-05-06 20:30 9.12557 -70.31133 23928 ft 347 kts 321°
2026-05-06 20:30 9.14421 -70.32674 23927 ft 345 kts 321°
2026-05-06 20:31 9.16276 -70.34209 23926 ft 344 kts 321°
2026-05-06 20:31 9.18132 -70.35733 23922 ft 343 kts 321°
2026-05-06 20:31 9.19971 -70.37263 23920 ft 341 kts 321°
2026-05-06 20:31 9.21815 -70.38773 23918 ft 341 kts 321°
2026-05-06 20:32 9.24240 -70.40782 23918 ft 340 kts 321°
2026-05-06 20:32 9.25457 -70.41785 23917 ft 340 kts 321°
2026-05-06 20:32 9.27288 -70.43295 23917 ft 340 kts 321°
2026-05-06 20:32 9.29122 -70.44811 23923 ft 339 kts 321°
2026-05-06 20:33 9.30945 -70.46320 23923 ft 339 kts 321°
2026-05-06 20:33 9.32775 -70.47829 23920 ft 339 kts 321°
2026-05-06 20:33 9.34597 -70.49343 23921 ft 338 kts 320°
2026-05-06 20:33 9.36163 -70.51113 23917 ft 339 kts 307°
2026-05-06 20:34 9.37353 -70.53168 23919 ft 339 kts 295°
2026-05-06 20:34 9.38092 -70.55437 23917 ft 340 kts 284°
2026-05-06 20:34 9.38351 -70.57788 23916 ft 342 kts 272°
2026-05-06 20:34 9.38124 -70.60186 23919 ft 344 kts 260°
2026-05-06 20:35 9.37408 -70.62499 23918 ft 346 kts 248°
2026-05-06 20:35 9.36221 -70.64617 23917 ft 348 kts 236°
2026-05-06 20:35 9.34790 -70.66590 23919 ft 348 kts 235°
2026-05-06 20:35 9.33381 -70.68582 23922 ft 348 kts 235°
2026-05-06 20:36 9.31964 -70.70571 23923 ft 348 kts 235°
2026-05-06 20:36 9.30543 -70.72554 23922 ft 347 kts 235°
2026-05-06 20:36 9.29128 -70.74534 23922 ft 347 kts 235°
2026-05-06 20:36 9.27726 -70.76488 23924 ft 348 kts 235°
2026-05-06 20:37 9.26310 -70.78471 23925 ft 348 kts 235°
2026-05-06 20:37 9.24891 -70.80457 23926 ft 348 kts 235°
2026-05-06 20:37 9.23471 -70.82443 23928 ft 348 kts 235°
2026-05-06 20:37 9.22048 -70.84430 23926 ft 348 kts 235°
2026-05-06 20:38 9.20631 -70.86413 23927 ft 348 kts 235°
2026-05-06 20:38 9.19210 -70.88400 23929 ft 348 kts 235°
2026-05-06 20:38 9.17785 -70.90383 23928 ft 348 kts 235°
2026-05-06 20:38 9.16367 -70.92373 23927 ft 349 kts 235°
2026-05-06 20:39 9.14963 -70.94331 23928 ft 348 kts 235°
2026-05-06 20:39 9.13539 -70.96315 23929 ft 348 kts 235°
2026-05-06 20:39 9.12116 -70.98303 23930 ft 349 kts 235°
2026-05-06 20:39 9.10694 -71.00292 23931 ft 349 kts 235°
2026-05-06 20:40 9.09268 -71.02278 23930 ft 349 kts 234°
2026-05-06 20:40 9.07850 -71.04263 23931 ft 349 kts 235°
2026-05-06 20:40 9.06423 -71.06251 23933 ft 349 kts 234°
2026-05-06 20:40 9.04999 -71.08237 23928 ft 348 kts 235°
2026-05-06 20:41 9.03577 -71.10220 23929 ft 348 kts 235°
2026-05-06 20:41 9.02176 -71.12177 23927 ft 348 kts 234°
2026-05-06 20:41 9.00756 -71.14157 23930 ft 348 kts 235°
2026-05-06 20:41 8.99335 -71.16137 23930 ft 348 kts 235°
2026-05-06 20:42 8.97914 -71.18118 23928 ft 348 kts 235°
2026-05-06 20:42 8.96493 -71.20099 23926 ft 348 kts 235°
2026-05-06 20:42 8.95073 -71.22081 23929 ft 348 kts 235°
2026-05-06 20:42 8.93652 -71.24058 23932 ft 347 kts 234°
2026-05-06 20:43 8.92233 -71.26029 23926 ft 347 kts 234°
2026-05-06 20:43 8.90815 -71.28013 23930 ft 347 kts 234°
2026-05-06 20:43 8.89418 -71.29962 23930 ft 348 kts 234°
2026-05-06 20:43 8.87994 -71.31936 23930 ft 347 kts 234°
2026-05-06 20:44 8.86577 -71.33916 23929 ft 348 kts 234°
2026-05-06 20:44 8.85153 -71.35891 23929 ft 348 kts 234°
2026-05-06 20:44 8.83718 -71.37889 23561 ft 358 kts 234°
2026-05-06 20:44 8.82220 -71.39984 22745 ft 378 kts 234°
2026-05-06 20:45 8.80639 -71.42177 21882 ft 394 kts 234°
2026-05-06 20:45 8.79009 -71.44444 21183 ft 402 kts 234°
2026-05-06 20:45 8.77380 -71.46712 20560 ft 406 kts 234°
2026-05-06 20:45 8.75710 -71.49029 19904 ft 409 kts 233°
2026-05-06 20:46 8.74038 -71.51368 19263 ft 412 kts 233°
2026-05-06 20:46 8.72205 -71.53584 18601 ft 411 kts 223°
2026-05-06 20:46 8.69960 -71.55357 17958 ft 410 kts 212°
2026-05-06 20:46 8.67497 -71.56602 17313 ft 361 kts 198°
2026-05-06 20:47 8.65303 -71.57273 16835 ft 312 kts 188°
2026-05-06 20:47 8.63196 -71.57552 16375 ft 299 kts 180°
2026-05-06 20:47 8.61176 -71.57517 15971 ft 285 kts 172°
2026-05-06 20:47 8.59287 -71.57221 15544 ft 273 kts 163°
2026-05-06 20:48 8.57494 -71.56684 15123 ft 265 kts 156°
2026-05-06 20:48 8.55849 -71.55938 14728 ft 254 kts 149°
2026-05-06 20:48 8.54358 -71.55024 14321 ft 248 kts 142°
2026-05-06 20:48 8.53018 -71.53958 13931 ft 242 kts 135°
2026-05-06 20:49 8.51851 -71.52769 13558 ft 235 kts 130°
2026-05-06 20:49 8.50850 -71.51484 13188 ft 230 kts 123°
2026-05-06 20:49 8.49948 -71.50166 12829 ft 226 kts 123°
2026-05-06 20:49 8.49038 -71.48881 12476 ft 225 kts 123°
2026-05-06 20:50 8.48344 -71.47500 12121 ft 225 kts 108°
2026-05-06 20:50 8.48039 -71.45955 11768 ft 225 kts 95°
2026-05-06 20:50 8.48140 -71.44383 11419 ft 224 kts 84°
2026-05-06 20:50 8.48293 -71.42813 11069 ft 225 kts 86°
2026-05-06 20:51 8.48450 -71.41240 10710 ft 225 kts 85°
2026-05-06 20:51 8.48598 -71.39672 10361 ft 220 kts 85°
2026-05-06 20:51 8.48749 -71.38183 10025 ft 208 kts 84°
2026-05-06 20:51 8.48901 -71.36764 9699 ft 198 kts 82°
2026-05-06 20:52 8.49301 -71.35486 9409 ft 190 kts 69°
2026-05-06 20:52 8.49726 -71.34237 9118 ft 186 kts 73°
2026-05-06 20:52 8.50126 -71.33003 8824 ft 184 kts 71°
2026-05-06 20:52 8.50542 -71.31790 8542 ft 182 kts 72°
2026-05-06 20:53 8.50948 -71.30585 8258 ft 180 kts 71°
2026-05-06 20:53 8.51357 -71.29390 7977 ft 180 kts 72°
2026-05-06 20:53 8.51796 -71.28202 7700 ft 181 kts 68°
2026-05-06 20:53 8.52244 -71.27015 7407 ft 181 kts 71°
2026-05-06 20:54 8.52675 -71.25824 7133 ft 179 kts 68°
2026-05-06 20:54 8.53286 -71.24769 6934 ft 162 kts 57°
2026-05-06 20:54 8.53812 -71.23928 6861 ft 129 kts 60°
2026-05-06 20:54 8.54246 -71.23166 6657 ft 122 kts 61°
2026-05-06 20:55 8.54648 -71.22417 6421 ft 121 kts 63°
2026-05-06 20:55 8.55054 -71.21680 6158 ft 121 kts 62°
2026-05-06 20:55 8.55457 -71.20935 5872 ft 121 kts 63°
2026-05-06 20:55 8.55875 -71.20207 5609 ft 118 kts 61°
2026-05-06 20:56 8.56276 -71.19488 5372 ft 117 kts 61°
2026-05-06 20:56 8.56677 -71.18780 5190 ft 119 kts 60°
2026-05-06 20:56 8.57106 -71.18059 5005 ft 120 kts 59°
2026-05-06 20:56 8.57515 -71.17341 4899 ft 115 kts 60°
2026-05-06 20:57 8.57916 -71.16660 4821 ft 110 kts 59°
2026-05-06 20:57 8.58200 -71.16177 4892 ft 31 kts 59°
2026-05-06 20:57 8.58281 -71.16133 4904 ft 7 kts 39°
2026-05-06 20:57 8.58284 -71.16129 4905 ft 0 kts 57°